Year,Month,Day,Hour,Minute,Value (Times are PST for temperature in C)
2012,10,28,00,00,11.40
2012,10,28,00,01,11.40
2012,10,28,00,02,11.40
2012,10,28,00,03,11.40
2012,10,28,00,04,11.50
2012,10,28,00,05,11.50
2012,10,28,00,06,11.50
2012,10,28,00,07,11.50
2012,10,28,00,08,11.50
2012,10,28,00,09,11.50
2012,10,28,00,10,11.50
2012,10,28,00,11,11.50
2012,10,28,00,12,11.50
2012,10,28,00,13,11.50
2012,10,28,00,14,11.50
2012,10,28,00,15,11.50
2012,10,28,00,16,11.50
2012,10,28,00,17,11.50
2012,10,28,00,18,11.50
2012,10,28,00,19,11.60
2012,10,28,00,20,11.60
2012,10,28,00,21,11.60
2012,10,28,00,22,11.60
2012,10,28,00,23,11.60
2012,10,28,00,24,11.60
2012,10,28,00,25,11.60
2012,10,28,00,26,11.60
2012,10,28,00,27,11.60
2012,10,28,00,28,11.60
2012,10,28,00,29,11.60
2012,10,28,00,30,11.60
2012,10,28,00,31,11.60
2012,10,28,00,32,11.60
2012,10,28,00,33,11.60
2012,10,28,00,34,11.50
2012,10,28,00,35,11.50
2012,10,28,00,36,11.50
2012,10,28,00,37,11.50
2012,10,28,00,38,11.50
2012,10,28,00,39,11.50
2012,10,28,00,40,11.50
2012,10,28,00,41,11.50
2012,10,28,00,42,11.50
2012,10,28,00,43,11.50
2012,10,28,00,44,11.50
2012,10,28,00,45,11.50
2012,10,28,00,46,11.50
2012,10,28,00,47,11.50
2012,10,28,00,48,11.50
2012,10,28,00,49,11.40
2012,10,28,00,50,11.40
2012,10,28,00,51,11.40
2012,10,28,00,52,11.40
2012,10,28,00,53,11.40
2012,10,28,00,54,11.40
2012,10,28,00,55,11.40
2012,10,28,00,56,11.40
2012,10,28,00,57,11.30
2012,10,28,00,58,11.30
2012,10,28,00,59,11.30
2012,10,28,01,00,11.30
2012,10,28,01,01,11.30
2012,10,28,01,02,11.30
2012,10,28,01,03,11.30
2012,10,28,01,04,11.30
2012,10,28,01,05,11.30
2012,10,28,01,06,11.30
2012,10,28,01,07,11.30
2012,10,28,01,08,11.30
2012,10,28,01,09,11.30
2012,10,28,01,10,11.30
2012,10,28,01,11,11.20
2012,10,28,01,12,11.20
2012,10,28,01,13,11.20
2012,10,28,01,14,11.20
2012,10,28,01,15,11.20
2012,10,28,01,16,11.20
2012,10,28,01,17,11.20
2012,10,28,01,18,11.20
2012,10,28,01,19,11.20
2012,10,28,01,20,11.20
2012,10,28,01,21,11.20
2012,10,28,01,22,11.20
2012,10,28,01,23,11.20
2012,10,28,01,24,11.20
2012,10,28,01,25,11.20
2012,10,28,01,26,11.20
2012,10,28,01,27,11.20
2012,10,28,01,28,11.20
2012,10,28,01,29,11.10
2012,10,28,01,30,11.10
2012,10,28,01,31,11.10
2012,10,28,01,32,11.10
2012,10,28,01,33,11.10
2012,10,28,01,34,11.10
2012,10,28,01,35,11.10
2012,10,28,01,36,11.10
2012,10,28,01,37,11.10
2012,10,28,01,38,11.10
2012,10,28,01,39,11.10
2012,10,28,01,40,11.10
2012,10,28,01,41,11.10
2012,10,28,01,42,11.10
2012,10,28,01,43,11.10
2012,10,28,01,44,11.10
2012,10,28,01,45,11.10
2012,10,28,01,46,11.10
2012,10,28,01,47,11.10
2012,10,28,01,48,11.00
2012,10,28,01,49,11.00
2012,10,28,01,50,11.00
2012,10,28,01,51,11.00
2012,10,28,01,52,11.00
2012,10,28,01,53,11.00
2012,10,28,01,54,11.00
2012,10,28,01,55,11.00
2012,10,28,01,56,11.00
2012,10,28,01,57,11.00
2012,10,28,01,58,10.90
2012,10,28,01,59,10.90
2012,10,28,02,00,10.90
2012,10,28,02,01,10.90
2012,10,28,02,02,10.90
2012,10,28,02,03,10.90
2012,10,28,02,04,10.90
2012,10,28,02,05,10.90
2012,10,28,02,06,10.90
2012,10,28,02,07,10.90
2012,10,28,02,08,10.90
2012,10,28,02,09,10.90
2012,10,28,02,10,10.90
2012,10,28,02,11,11.00
2012,10,28,02,12,11.00
2012,10,28,02,13,11.00
2012,10,28,02,14,11.00
2012,10,28,02,15,11.00
2012,10,28,02,16,11.00
2012,10,28,02,17,11.00
2012,10,28,02,18,10.90
2012,10,28,02,19,10.90
2012,10,28,02,20,10.90
2012,10,28,02,21,10.90
2012,10,28,02,22,10.90
2012,10,28,02,23,10.90
2012,10,28,02,24,10.90
2012,10,28,02,25,10.90
2012,10,28,02,26,10.90
2012,10,28,02,27,10.90
2012,10,28,02,28,10.90
2012,10,28,02,29,10.90
2012,10,28,02,30,10.90
2012,10,28,02,31,10.90
2012,10,28,02,32,10.90
2012,10,28,02,33,10.90
2012,10,28,02,34,10.90
2012,10,28,02,35,10.90
2012,10,28,02,36,10.90
2012,10,28,02,37,10.90
2012,10,28,02,38,10.90
2012,10,28,02,39,10.90
2012,10,28,02,40,10.90
2012,10,28,02,41,10.90
2012,10,28,02,42,10.90
2012,10,28,02,43,10.90
2012,10,28,02,44,10.90
2012,10,28,02,45,10.90
2012,10,28,02,46,10.90
2012,10,28,02,47,10.90
2012,10,28,02,48,10.90
2012,10,28,02,49,10.90
2012,10,28,02,50,10.90
2012,10,28,02,51,10.90
2012,10,28,02,52,10.90
2012,10,28,02,53,10.90
2012,10,28,02,54,10.90
2012,10,28,02,55,10.90
2012,10,28,02,56,10.90
2012,10,28,02,57,10.90
2012,10,28,02,58,10.90
2012,10,28,02,59,10.90
2012,10,28,03,00,10.90
2012,10,28,03,01,10.90
2012,10,28,03,02,10.90
2012,10,28,03,03,10.90
2012,10,28,03,04,10.90
2012,10,28,03,05,10.90
2012,10,28,03,06,10.90
2012,10,28,03,07,10.90
2012,10,28,03,08,10.90
2012,10,28,03,09,10.90
2012,10,28,03,10,10.90
2012,10,28,03,11,10.90
2012,10,28,03,12,10.90
2012,10,28,03,13,10.90
2012,10,28,03,14,10.90
2012,10,28,03,15,10.90
2012,10,28,03,16,10.90
2012,10,28,03,17,10.90
2012,10,28,03,18,10.90
2012,10,28,03,19,10.90
2012,10,28,03,20,10.90
2012,10,28,03,21,10.90
2012,10,28,03,22,10.90
2012,10,28,03,23,10.90
2012,10,28,03,24,10.90
2012,10,28,03,25,10.80
2012,10,28,03,26,10.80
2012,10,28,03,27,10.80
2012,10,28,03,28,10.80
2012,10,28,03,29,10.80
2012,10,28,03,30,10.80
2012,10,28,03,31,10.80
2012,10,28,03,32,10.80
2012,10,28,03,33,10.80
2012,10,28,03,34,10.80
2012,10,28,03,35,10.80
2012,10,28,03,36,10.80
2012,10,28,03,37,10.80
2012,10,28,03,38,10.80
2012,10,28,03,39,10.80
2012,10,28,03,40,10.80
2012,10,28,03,41,10.80
2012,10,28,03,42,10.80
2012,10,28,03,43,10.80
2012,10,28,03,44,10.80
2012,10,28,03,45,10.80
2012,10,28,03,46,10.80
2012,10,28,03,47,10.80
2012,10,28,03,48,10.80
2012,10,28,03,49,10.80
2012,10,28,03,50,10.80
2012,10,28,03,51,10.80
2012,10,28,03,52,10.80
2012,10,28,03,53,10.80
2012,10,28,03,54,10.80
2012,10,28,03,55,10.70
2012,10,28,03,56,10.70
2012,10,28,03,57,10.70
2012,10,28,03,58,10.70
2012,10,28,03,59,10.70
2012,10,28,04,00,10.70
2012,10,28,04,01,10.70
2012,10,28,04,02,10.60
2012,10,28,04,03,10.60
2012,10,28,04,04,10.60
2012,10,28,04,05,10.60
2012,10,28,04,06,10.60
2012,10,28,04,07,10.60
2012,10,28,04,08,10.60
2012,10,28,04,09,10.60
2012,10,28,04,10,10.60
2012,10,28,04,11,10.50
2012,10,28,04,12,10.50
2012,10,28,04,13,10.50
2012,10,28,04,14,10.50
2012,10,28,04,15,10.50
2012,10,28,04,16,10.40
2012,10,28,04,17,10.40
2012,10,28,04,18,10.40
2012,10,28,04,19,10.40
2012,10,28,04,20,10.40
2012,10,28,04,21,10.40
2012,10,28,04,22,10.30
2012,10,28,04,23,10.30
2012,10,28,04,24,10.30
2012,10,28,04,25,10.30
2012,10,28,04,26,10.30
2012,10,28,04,27,10.30
2012,10,28,04,28,10.30
2012,10,28,04,29,10.30
2012,10,28,04,30,10.30
2012,10,28,04,31,10.30
2012,10,28,04,32,10.30
2012,10,28,04,33,10.30
2012,10,28,04,34,10.30
2012,10,28,04,35,10.30
2012,10,28,04,36,10.30
2012,10,28,04,37,10.30
2012,10,28,04,38,10.30
2012,10,28,04,39,10.30
2012,10,28,04,40,10.30
2012,10,28,04,41,10.20
2012,10,28,04,42,10.20
2012,10,28,04,43,10.20
2012,10,28,04,44,10.20
2012,10,28,04,45,10.20
2012,10,28,04,46,10.20
2012,10,28,04,47,10.20
2012,10,28,04,48,10.20
2012,10,28,04,49,10.20
2012,10,28,04,50,10.20
2012,10,28,04,51,10.20
2012,10,28,04,52,10.20
2012,10,28,04,53,10.20
2012,10,28,04,54,10.20
2012,10,28,04,55,10.20
2012,10,28,04,56,10.20
2012,10,28,04,57,10.20
2012,10,28,04,58,10.20
2012,10,28,04,59,10.20
2012,10,28,05,00,10.20
2012,10,28,05,01,10.20
2012,10,28,05,02,10.20
2012,10,28,05,03,10.20
2012,10,28,05,04,10.20
2012,10,28,05,05,10.20
2012,10,28,05,06,10.20
2012,10,28,05,07,10.20
2012,10,28,05,08,10.20
2012,10,28,05,09,10.20
2012,10,28,05,10,10.20
2012,10,28,05,11,10.20
2012,10,28,05,12,10.20
2012,10,28,05,13,10.20
2012,10,28,05,14,10.20
2012,10,28,05,15,10.10
2012,10,28,05,16,10.10
2012,10,28,05,17,10.10
2012,10,28,05,18,10.10
2012,10,28,05,19,10.10
2012,10,28,05,20,10.10
2012,10,28,05,21,10.10
2012,10,28,05,22,10.10
2012,10,28,05,23,10.10
2012,10,28,05,24,10.10
2012,10,28,05,25,10.10
2012,10,28,05,26,10.00
2012,10,28,05,27,10.00
2012,10,28,05,28,10.00
2012,10,28,05,29,10.00
2012,10,28,05,30,10.00
2012,10,28,05,31,10.00
2012,10,28,05,32,10.00
2012,10,28,05,33,10.00
2012,10,28,05,34,10.00
2012,10,28,05,35,10.00
2012,10,28,05,36,10.00
2012,10,28,05,37,10.00
2012,10,28,05,38,10.00
2012,10,28,05,39,10.00
2012,10,28,05,40,10.00
2012,10,28,05,41,10.00
2012,10,28,05,42,10.00
2012,10,28,05,43,10.00
2012,10,28,05,44,10.00
2012,10,28,05,45,10.00
2012,10,28,05,46,10.00
2012,10,28,05,47,10.00
2012,10,28,05,48,9.90
2012,10,28,05,49,9.90
2012,10,28,05,50,10.00
2012,10,28,05,51,9.90
2012,10,28,05,52,9.90
2012,10,28,05,53,9.90
2012,10,28,05,54,10.00
2012,10,28,05,55,9.90
2012,10,28,05,56,10.00
2012,10,28,05,57,10.00
2012,10,28,05,58,10.00
2012,10,28,05,59,9.90
2012,10,28,06,00,9.90
2012,10,28,06,01,9.90
2012,10,28,06,02,9.90
2012,10,28,06,03,9.90
2012,10,28,06,04,10.00
2012,10,28,06,05,10.00
2012,10,28,06,06,10.00
2012,10,28,06,07,10.00
2012,10,28,06,08,9.90
2012,10,28,06,09,9.90
2012,10,28,06,10,9.90
2012,10,28,06,11,9.90
2012,10,28,06,12,9.90
2012,10,28,06,13,9.90
2012,10,28,06,14,9.90
2012,10,28,06,15,9.90
2012,10,28,06,16,9.90
2012,10,28,06,17,9.90
2012,10,28,06,18,9.90
2012,10,28,06,19,9.90
2012,10,28,06,20,9.90
2012,10,28,06,21,9.90
2012,10,28,06,22,9.90
2012,10,28,06,23,9.90
2012,10,28,06,24,9.90
2012,10,28,06,25,9.90
2012,10,28,06,26,9.80
2012,10,28,06,27,9.80
2012,10,28,06,28,9.80
2012,10,28,06,29,9.80
2012,10,28,06,30,9.80
2012,10,28,06,31,9.80
2012,10,28,06,32,9.80
2012,10,28,06,33,9.80
2012,10,28,06,34,9.90
2012,10,28,06,35,9.80
2012,10,28,06,36,9.80
2012,10,28,06,37,9.80
2012,10,28,06,38,9.80
2012,10,28,06,39,9.80
2012,10,28,06,40,9.80
2012,10,28,06,41,9.80
2012,10,28,06,42,9.80
2012,10,28,06,43,9.80
2012,10,28,06,44,9.80
2012,10,28,06,45,9.90
2012,10,28,06,46,9.90
2012,10,28,06,47,9.90
2012,10,28,06,48,9.90
2012,10,28,06,49,9.90
2012,10,28,06,50,9.90
2012,10,28,06,51,9.90
2012,10,28,06,52,9.90
2012,10,28,06,53,9.90
2012,10,28,06,54,9.90
2012,10,28,06,55,9.90
2012,10,28,06,56,10.00
2012,10,28,06,57,10.00
2012,10,28,06,58,10.00
2012,10,28,06,59,10.00
2012,10,28,07,00,10.10
2012,10,28,07,01,10.10
2012,10,28,07,02,10.10
2012,10,28,07,03,10.10
2012,10,28,07,04,10.10
2012,10,28,07,05,10.10
2012,10,28,07,06,10.10
2012,10,28,07,07,10.20
2012,10,28,07,08,10.20
2012,10,28,07,09,10.20
2012,10,28,07,10,10.20
2012,10,28,07,11,10.20
2012,10,28,07,12,10.20
2012,10,28,07,13,10.20
2012,10,28,07,14,10.20
2012,10,28,07,15,10.20
2012,10,28,07,16,10.20
2012,10,28,07,17,10.20
2012,10,28,07,18,10.20
2012,10,28,07,19,10.20
2012,10,28,07,20,10.20
2012,10,28,07,21,10.30
2012,10,28,07,22,10.30
2012,10,28,07,23,10.30
2012,10,28,07,24,10.30
2012,10,28,07,25,10.30
2012,10,28,07,26,10.30
2012,10,28,07,27,10.30
2012,10,28,07,28,10.30
2012,10,28,07,29,10.30
2012,10,28,07,30,10.30
2012,10,28,07,31,10.30
2012,10,28,07,32,10.30
2012,10,28,07,33,10.30
2012,10,28,07,34,10.30
2012,10,28,07,35,10.30
2012,10,28,07,36,10.40
2012,10,28,07,37,10.40
2012,10,28,07,38,10.40
2012,10,28,07,39,10.40
2012,10,28,07,40,10.40
2012,10,28,07,41,10.40
2012,10,28,07,42,10.40
2012,10,28,07,43,10.40
2012,10,28,07,44,10.40
2012,10,28,07,45,10.40
2012,10,28,07,46,10.40
2012,10,28,07,47,10.40
2012,10,28,07,48,10.40
2012,10,28,07,49,10.40
2012,10,28,07,50,10.40
2012,10,28,07,51,10.40
2012,10,28,07,52,10.40
2012,10,28,07,53,10.40
2012,10,28,07,54,10.40
2012,10,28,07,55,10.40
2012,10,28,07,56,10.40
2012,10,28,07,57,10.40
2012,10,28,07,58,10.40
2012,10,28,07,59,10.40
2012,10,28,08,00,10.40
2012,10,28,08,01,10.40
2012,10,28,08,02,10.40
2012,10,28,08,03,10.50
2012,10,28,08,04,10.50
2012,10,28,08,05,10.50
2012,10,28,08,06,10.50
2012,10,28,08,07,10.50
2012,10,28,08,08,10.50
2012,10,28,08,09,10.50
2012,10,28,08,10,10.50
2012,10,28,08,11,10.50
2012,10,28,08,12,10.60
2012,10,28,08,13,10.60
2012,10,28,08,14,10.60
2012,10,28,08,15,10.60
2012,10,28,08,16,10.60
2012,10,28,08,17,10.60
2012,10,28,08,18,10.60
2012,10,28,08,19,10.60
2012,10,28,08,20,10.60
2012,10,28,08,21,10.60
2012,10,28,08,22,10.60
2012,10,28,08,23,10.60
2012,10,28,08,24,10.60
2012,10,28,08,25,10.60
2012,10,28,08,26,10.60
2012,10,28,08,27,10.70
2012,10,28,08,28,10.70
2012,10,28,08,29,10.80
2012,10,28,08,30,10.80
2012,10,28,08,31,10.80
2012,10,28,08,32,10.80
2012,10,28,08,33,10.90
2012,10,28,08,34,11.00
2012,10,28,08,35,11.00
2012,10,28,08,36,11.00
2012,10,28,08,37,11.00
2012,10,28,08,38,10.90
2012,10,28,08,39,10.90
2012,10,28,08,40,10.90
2012,10,28,08,41,10.90
2012,10,28,08,42,10.90
2012,10,28,08,43,10.90
2012,10,28,08,44,10.90
2012,10,28,08,45,11.00
2012,10,28,08,46,11.00
2012,10,28,08,47,11.10
2012,10,28,08,48,11.10
2012,10,28,08,49,11.10
2012,10,28,08,50,11.10
2012,10,28,08,51,11.10
2012,10,28,08,52,11.10
2012,10,28,08,53,11.20
2012,10,28,08,54,11.20
2012,10,28,08,55,11.20
2012,10,28,08,56,11.20
2012,10,28,08,57,11.30
2012,10,28,08,58,11.30
2012,10,28,08,59,11.30
2012,10,28,09,00,11.30
2012,10,28,09,01,11.30
2012,10,28,09,02,11.30
2012,10,28,09,03,11.40
2012,10,28,09,04,11.40
2012,10,28,09,05,11.40
2012,10,28,09,06,11.40
2012,10,28,09,07,11.40
2012,10,28,09,08,11.40
2012,10,28,09,09,11.40
2012,10,28,09,10,11.40
2012,10,28,09,11,11.40
2012,10,28,09,12,11.50
2012,10,28,09,13,11.50
2012,10,28,09,14,11.60
2012,10,28,09,15,11.60
2012,10,28,09,16,11.70
2012,10,28,09,17,11.80
2012,10,28,09,18,11.80
2012,10,28,09,19,11.80
2012,10,28,09,20,11.90
2012,10,28,09,21,11.90
2012,10,28,09,22,11.90
2012,10,28,09,23,11.90
2012,10,28,09,24,11.90
2012,10,28,09,25,11.90
2012,10,28,09,26,11.90
2012,10,28,09,27,11.90
2012,10,28,09,28,11.90
2012,10,28,09,29,11.90
2012,10,28,09,30,11.90
2012,10,28,09,31,11.90
2012,10,28,09,32,11.90
2012,10,28,09,33,11.90
2012,10,28,09,34,11.90
2012,10,28,09,35,11.90
2012,10,28,09,36,11.90
2012,10,28,09,37,11.80
2012,10,28,09,38,11.80
2012,10,28,09,39,11.80
2012,10,28,09,40,11.80
2012,10,28,09,41,11.80
2012,10,28,09,42,11.80
2012,10,28,09,43,11.80
2012,10,28,09,44,11.80
2012,10,28,09,45,11.80
2012,10,28,09,46,11.80
2012,10,28,09,47,11.80
2012,10,28,09,48,11.80
2012,10,28,09,49,11.80
2012,10,28,09,50,11.80
2012,10,28,09,51,11.80
2012,10,28,09,52,11.80
2012,10,28,09,53,11.80
2012,10,28,09,54,11.80
2012,10,28,09,55,11.90
2012,10,28,09,56,11.90
2012,10,28,09,57,11.90
2012,10,28,09,58,11.90
2012,10,28,09,59,12.00
2012,10,28,10,00,12.00
2012,10,28,10,01,12.00
2012,10,28,10,02,11.90
2012,10,28,10,03,11.90
2012,10,28,10,04,11.90
2012,10,28,10,05,11.90
2012,10,28,10,06,11.80
2012,10,28,10,07,11.90
2012,10,28,10,08,11.90
2012,10,28,10,09,11.90
2012,10,28,10,10,11.90
2012,10,28,10,11,11.80
2012,10,28,10,12,11.90
2012,10,28,10,13,11.90
2012,10,28,10,14,11.90
2012,10,28,10,15,11.90
2012,10,28,10,16,12.00
2012,10,28,10,17,12.00
2012,10,28,10,18,12.00
2012,10,28,10,19,12.00
2012,10,28,10,20,12.00
2012,10,28,10,21,12.00
2012,10,28,10,22,12.10
2012,10,28,10,23,12.10
2012,10,28,10,24,12.10
2012,10,28,10,25,12.10
2012,10,28,10,26,12.20
2012,10,28,10,27,12.20
2012,10,28,10,28,12.20
2012,10,28,10,29,12.20
2012,10,28,10,30,12.20
2012,10,28,10,31,12.30
2012,10,28,10,32,12.30
2012,10,28,10,33,12.30
2012,10,28,10,34,12.30
2012,10,28,10,35,12.30
2012,10,28,10,36,12.30
2012,10,28,10,37,12.30
2012,10,28,10,38,12.40
2012,10,28,10,39,12.40
2012,10,28,10,40,12.40
2012,10,28,10,41,12.40
2012,10,28,10,42,12.40
2012,10,28,10,43,12.40
2012,10,28,10,44,12.40
2012,10,28,10,45,12.50
2012,10,28,10,46,12.50
2012,10,28,10,47,12.50
2012,10,28,10,48,12.50
2012,10,28,10,49,12.50
2012,10,28,10,50,12.50
2012,10,28,10,51,12.60
2012,10,28,10,52,12.60
2012,10,28,10,53,12.60
2012,10,28,10,54,12.70
2012,10,28,10,55,12.70
2012,10,28,10,56,12.70
2012,10,28,10,57,12.70
2012,10,28,10,58,12.70
2012,10,28,10,59,12.80
2012,10,28,11,00,12.80
2012,10,28,11,01,12.80
2012,10,28,11,02,12.80
2012,10,28,11,03,12.80
2012,10,28,11,04,12.80
2012,10,28,11,05,12.80
2012,10,28,11,06,12.90
2012,10,28,11,07,12.90
2012,10,28,11,08,12.90
2012,10,28,11,09,12.90
2012,10,28,11,10,13.00
2012,10,28,11,11,13.00
2012,10,28,11,12,13.00
2012,10,28,11,13,13.00
2012,10,28,11,14,13.10
2012,10,28,11,15,13.10
2012,10,28,11,16,13.10
2012,10,28,11,17,13.10
2012,10,28,11,18,13.10
2012,10,28,11,19,13.20
2012,10,28,11,20,13.20
2012,10,28,11,21,13.20
2012,10,28,11,22,13.10
2012,10,28,11,23,13.10
2012,10,28,11,24,13.00
2012,10,28,11,25,12.90
2012,10,28,11,26,12.80
2012,10,28,11,27,12.80
2012,10,28,11,28,12.70
2012,10,28,11,29,12.60
2012,10,28,11,30,12.60
2012,10,28,11,31,12.50
2012,10,28,11,32,12.50
2012,10,28,11,33,12.40
2012,10,28,11,34,12.40
2012,10,28,11,35,12.40
2012,10,28,11,36,12.40
2012,10,28,11,37,12.30
2012,10,28,11,38,12.30
2012,10,28,11,39,12.30
2012,10,28,11,40,12.30
2012,10,28,11,41,12.20
2012,10,28,11,42,12.20
2012,10,28,11,43,12.20
2012,10,28,11,44,12.20
2012,10,28,11,45,12.10
2012,10,28,11,46,12.10
2012,10,28,11,47,12.10
2012,10,28,11,48,12.10
2012,10,28,11,49,12.00
2012,10,28,11,50,12.00
2012,10,28,11,51,12.00
2012,10,28,11,52,12.00
2012,10,28,11,53,12.00
2012,10,28,11,54,12.00
2012,10,28,11,55,12.00
2012,10,28,11,56,12.00
2012,10,28,11,57,12.00
2012,10,28,11,58,12.00
2012,10,28,11,59,12.00
2012,10,28,12,00,11.90
2012,10,28,12,01,11.90
2012,10,28,12,02,12.00
2012,10,28,12,03,12.00
2012,10,28,12,04,12.00
2012,10,28,12,05,12.00
2012,10,28,12,06,12.00
2012,10,28,12,07,12.00
2012,10,28,12,08,12.00
2012,10,28,12,09,12.10
2012,10,28,12,10,12.10
2012,10,28,12,11,12.10
2012,10,28,12,12,12.10
2012,10,28,12,13,12.10
2012,10,28,12,14,12.10
2012,10,28,12,15,12.10
2012,10,28,12,16,12.10
2012,10,28,12,17,12.10
2012,10,28,12,18,12.10
2012,10,28,12,19,12.10
2012,10,28,12,20,12.20
2012,10,28,12,21,12.20
2012,10,28,12,22,12.20
2012,10,28,12,23,12.20
2012,10,28,12,24,12.20
2012,10,28,12,25,12.20
2012,10,28,12,26,12.20
2012,10,28,12,27,12.20
2012,10,28,12,28,12.20
2012,10,28,12,29,12.20
2012,10,28,12,30,12.20
2012,10,28,12,31,12.30
2012,10,28,12,32,12.30
2012,10,28,12,33,12.30
2012,10,28,12,34,12.30
2012,10,28,12,35,12.30
2012,10,28,12,36,12.30
2012,10,28,12,37,12.30
2012,10,28,12,38,12.30
2012,10,28,12,39,12.40
2012,10,28,12,40,12.40
2012,10,28,12,41,12.40
2012,10,28,12,42,12.40
2012,10,28,12,43,12.50
2012,10,28,12,44,12.50
2012,10,28,12,45,12.60
2012,10,28,12,46,12.60
2012,10,28,12,47,12.60
2012,10,28,12,48,12.60
2012,10,28,12,49,12.60
2012,10,28,12,50,12.60
2012,10,28,12,51,12.70
2012,10,28,12,52,12.70
2012,10,28,12,53,12.70
2012,10,28,12,54,12.70
2012,10,28,12,55,12.70
2012,10,28,12,56,12.80
2012,10,28,12,57,12.80
2012,10,28,12,58,12.80
2012,10,28,12,59,12.80
2012,10,28,13,00,12.80
2012,10,28,13,01,12.90
2012,10,28,13,02,12.80
2012,10,28,13,03,12.80
2012,10,28,13,04,12.80
2012,10,28,13,05,12.70
2012,10,28,13,06,12.70
2012,10,28,13,07,12.60
2012,10,28,13,08,12.60
2012,10,28,13,09,12.50
2012,10,28,13,10,12.50
2012,10,28,13,11,12.40
2012,10,28,13,12,12.40
2012,10,28,13,13,12.40
2012,10,28,13,14,12.40
2012,10,28,13,15,12.40
2012,10,28,13,16,12.30
2012,10,28,13,17,12.30
2012,10,28,13,18,12.30
2012,10,28,13,19,12.30
2012,10,28,13,20,12.30
2012,10,28,13,21,12.30
2012,10,28,13,22,12.30
2012,10,28,13,23,12.30
2012,10,28,13,24,12.30
2012,10,28,13,25,12.30
2012,10,28,13,26,12.30
2012,10,28,13,27,12.30
2012,10,28,13,28,12.30
2012,10,28,13,29,12.30
2012,10,28,13,30,12.30
2012,10,28,13,31,12.30
2012,10,28,13,32,12.30
2012,10,28,13,33,12.30
2012,10,28,13,34,12.30
2012,10,28,13,35,12.30
2012,10,28,13,36,12.30
2012,10,28,13,37,12.30
2012,10,28,13,38,12.30
2012,10,28,13,39,12.30
2012,10,28,13,40,12.30
2012,10,28,13,41,12.30
2012,10,28,13,42,12.30
2012,10,28,13,43,12.30
2012,10,28,13,44,12.30
2012,10,28,13,45,12.30
2012,10,28,13,46,12.30
2012,10,28,13,47,12.30
2012,10,28,13,48,12.30
2012,10,28,13,49,12.30
2012,10,28,13,50,12.40
2012,10,28,13,51,12.40
2012,10,28,13,52,12.40
2012,10,28,13,53,12.40
2012,10,28,13,54,12.50
2012,10,28,13,55,12.50
2012,10,28,13,56,12.50
2012,10,28,13,57,12.60
2012,10,28,13,58,12.60
2012,10,28,13,59,12.60
2012,10,28,14,00,12.70
2012,10,28,14,01,12.70
2012,10,28,14,02,12.70
2012,10,28,14,03,12.80
2012,10,28,14,04,12.80
2012,10,28,14,05,12.80
2012,10,28,14,06,12.90
2012,10,28,14,07,12.90
2012,10,28,14,08,12.90
2012,10,28,14,09,12.90
2012,10,28,14,10,13.00
2012,10,28,14,11,13.00
2012,10,28,14,12,13.00
2012,10,28,14,13,13.00
2012,10,28,14,14,13.10
2012,10,28,14,15,13.10
2012,10,28,14,16,13.10
2012,10,28,14,17,13.10
2012,10,28,14,18,13.10
2012,10,28,14,19,13.10
2012,10,28,14,20,13.20
2012,10,28,14,21,13.20
2012,10,28,14,22,13.20
2012,10,28,14,23,13.20
2012,10,28,14,24,13.30
2012,10,28,14,25,13.30
2012,10,28,14,26,13.30
2012,10,28,14,27,13.30
2012,10,28,14,28,13.30
2012,10,28,14,29,13.30
2012,10,28,14,30,13.30
2012,10,28,14,31,13.30
2012,10,28,14,32,13.40
2012,10,28,14,33,13.40
2012,10,28,14,34,13.40
2012,10,28,14,35,13.40
2012,10,28,14,36,13.40
2012,10,28,14,37,13.40
2012,10,28,14,38,13.40
2012,10,28,14,39,13.40
2012,10,28,14,40,13.40
2012,10,28,14,41,13.40
2012,10,28,14,42,13.40
2012,10,28,14,43,13.40
2012,10,28,14,44,13.40
2012,10,28,14,45,13.40
2012,10,28,14,46,13.40
2012,10,28,14,47,13.40
2012,10,28,14,48,13.30
2012,10,28,14,49,13.30
2012,10,28,14,50,13.30
2012,10,28,14,51,13.30
2012,10,28,14,52,13.30
2012,10,28,14,53,13.30
2012,10,28,14,54,13.30
2012,10,28,14,55,13.20
2012,10,28,14,56,13.20
2012,10,28,14,57,13.20
2012,10,28,14,58,13.20
2012,10,28,14,59,13.20
2012,10,28,15,00,13.20
2012,10,28,15,01,13.20
2012,10,28,15,02,13.20
2012,10,28,15,03,13.20
2012,10,28,15,04,13.20
2012,10,28,15,05,13.20
2012,10,28,15,06,13.20
2012,10,28,15,07,13.20
2012,10,28,15,08,13.20
2012,10,28,15,09,13.20
2012,10,28,15,10,13.10
2012,10,28,15,11,13.10
2012,10,28,15,12,13.10
2012,10,28,15,13,13.10
2012,10,28,15,14,13.10
2012,10,28,15,15,13.10
2012,10,28,15,16,13.10
2012,10,28,15,17,13.10
2012,10,28,15,18,13.10
2012,10,28,15,19,13.10
2012,10,28,15,20,13.10
2012,10,28,15,21,13.10
2012,10,28,15,22,13.10
2012,10,28,15,23,13.00
2012,10,28,15,24,13.00
2012,10,28,15,25,13.00
2012,10,28,15,26,13.00
2012,10,28,15,27,13.00
2012,10,28,15,28,13.00
2012,10,28,15,29,13.00
2012,10,28,15,30,13.00
2012,10,28,15,31,13.00
2012,10,28,15,32,12.90
2012,10,28,15,33,12.90
2012,10,28,15,34,12.90
2012,10,28,15,35,12.90
2012,10,28,15,36,12.90
2012,10,28,15,37,12.90
2012,10,28,15,38,12.90
2012,10,28,15,39,12.90
2012,10,28,15,40,12.80
2012,10,28,15,41,12.80
2012,10,28,15,42,12.80
2012,10,28,15,43,12.80
2012,10,28,15,44,12.80
2012,10,28,15,45,12.80
2012,10,28,15,46,12.80
2012,10,28,15,47,12.80
2012,10,28,15,48,12.80
2012,10,28,15,49,12.80
2012,10,28,15,50,12.80
2012,10,28,15,51,12.80
2012,10,28,15,52,12.80
2012,10,28,15,53,12.80
2012,10,28,15,54,12.80
2012,10,28,15,55,12.80
2012,10,28,15,56,12.80
2012,10,28,15,57,12.80
2012,10,28,15,58,12.80
2012,10,28,15,59,12.70
2012,10,28,16,00,12.70
2012,10,28,16,01,12.70
2012,10,28,16,02,12.70
2012,10,28,16,03,12.70
2012,10,28,16,04,12.70
2012,10,28,16,05,12.70
2012,10,28,16,06,12.70
2012,10,28,16,07,12.70
2012,10,28,16,08,12.70
2012,10,28,16,09,12.70
2012,10,28,16,10,12.60
2012,10,28,16,11,12.60
2012,10,28,16,12,12.60
2012,10,28,16,13,12.60
2012,10,28,16,14,12.60
2012,10,28,16,15,12.60
2012,10,28,16,16,12.60
2012,10,28,16,17,12.60
2012,10,28,16,18,12.50
2012,10,28,16,19,12.50
2012,10,28,16,20,12.50
2012,10,28,16,21,12.50
2012,10,28,16,22,12.50
2012,10,28,16,23,12.50
2012,10,28,16,24,12.60
2012,10,28,16,25,12.60
2012,10,28,16,26,12.60
2012,10,28,16,27,12.60
2012,10,28,16,28,12.60
2012,10,28,16,29,12.60
2012,10,28,16,30,12.60
2012,10,28,16,31,12.50
2012,10,28,16,32,12.50
2012,10,28,16,33,12.50
2012,10,28,16,34,12.50
2012,10,28,16,35,12.50
2012,10,28,16,36,12.50
2012,10,28,16,37,12.50
2012,10,28,16,38,12.50
2012,10,28,16,39,12.50
2012,10,28,16,40,12.50
2012,10,28,16,41,12.50
2012,10,28,16,42,12.50
2012,10,28,16,43,12.40
2012,10,28,16,44,12.40
2012,10,28,16,45,12.40
2012,10,28,16,46,12.40
2012,10,28,16,47,12.40
2012,10,28,16,48,12.40
2012,10,28,16,49,12.40
2012,10,28,16,50,12.40
2012,10,28,16,51,12.40
2012,10,28,16,52,12.40
2012,10,28,16,53,12.40
2012,10,28,16,54,12.40
2012,10,28,16,55,12.40
2012,10,28,16,56,12.40
2012,10,28,16,57,12.30
2012,10,28,16,58,12.30
2012,10,28,16,59,12.30
2012,10,28,17,00,12.30
2012,10,28,17,01,12.30
2012,10,28,17,02,12.30
2012,10,28,17,03,12.20
2012,10,28,17,04,12.20
2012,10,28,17,05,12.20
2012,10,28,17,06,12.20
2012,10,28,17,07,12.20
2012,10,28,17,08,12.20
2012,10,28,17,09,12.20
2012,10,28,17,10,12.20
2012,10,28,17,11,12.20
2012,10,28,17,12,12.10
2012,10,28,17,13,12.10
2012,10,28,17,14,12.10
2012,10,28,17,15,12.10
2012,10,28,17,16,12.10
2012,10,28,17,17,12.10
2012,10,28,17,18,12.00
2012,10,28,17,19,12.00
2012,10,28,17,20,12.00
2012,10,28,17,21,11.90
2012,10,28,17,22,11.90